Oakland, CA

11:46 AM PDT on May 28, 2017 (GMT -0700)
Metro Oakland International

Weather History for KOAK - December, 2014

Change the Weather History Date:

Thursday, December 11, 2014

  Actual Average Record
Temperature  
Mean Temperature 57 °F 49 °F  
Max Temperature 64 °F 57 °F 71 °F (1958)
Min Temperature 50 °F 42 °F 26 °F (1972)
Degree Days  
Heating Degree Days 8 16  
Month to date heating degree days 61 167  
Since 1 July heating degree days 398 842  
Cooling Degree Days 0 0  
Month to date cooling degree days 0 0  
Year to date cooling degree days 305 138  
Growing Degree Days 7 (Base 50)    
Moisture  
Dew Point 53 °F    
Average Humidity 80    
Maximum Humidity 93    
Minimum Humidity 67    
Precipitation  
Precipitation 3.12 in 0.12 in 3.12 in (2014)
Month to date precipitation 5.96 1.12  
Year to date precipitation 16.75 18.27  
Since 1 July precipitation 8.77  
Sea Level Pressure  
Sea Level Pressure 29.63 in    
Wind  
Wind Speed 14 mph (SSE)    
Max Wind Speed 36 mph    
Max Gust Speed 45 mph    
Visibility 6 miles    
Events Rain    
T = Trace of Precipitation, MM = Missing Value Source: NWS Daily Summary

Daily Weather History Graph

Daily Weather History Graph

Search for Another Location

Airport or City:

Trip Planner

Search our weather history database for the weather conditions in past years. The results will help you decide how hot, cold, wet, or windy it might be!

Date:

Astronomy

Dec. 11, 2014 Rise Set
Actual Time 7:14 AM PST 4:50 PM PST
Civil Twilight 6:44 AM PST 5:19 PM PST
Nautical Twilight 6:12 AM PST 5:52 PM PST
Astronomical Twilight 5:40 AM PST 6:24 PM PST
Moon 10:01 PM PST (12/11) 10:44 AM PST (12/11)
Length of Visible Light 10h 34m
Length of Day
9h 36m
Waning Gibbous, 74% of the Moon is Illuminated
Dec 11
Waning Gibbous
Dec 14
Last Quarter
Dec 21
New
Dec 28
First Quarter
Jan 4
Full

Hourly Weather History & Observations

Time (PST) Temp. Dew Point Humidity Pressure Visibility Wind Dir Wind Speed Gust Speed Precip Events Conditions
12:53 AM 63.0 °F 53.1 °F 70% 29.70 in 10.0 mi SE 20.7 mph 31.1 mph N/A   Overcast
1:53 AM 62.1 °F 52.0 °F 70% 29.66 in 10.0 mi SE 21.9 mph - N/A   Overcast
2:50 AM 62.6 °F 53.6 °F 72% 29.62 in 10.0 mi SSE 26.5 mph 34.5 mph N/A   Overcast
2:53 AM 63.0 °F 53.1 °F 70% 29.62 in 10.0 mi SSE 25.3 mph 34.5 mph N/A   Overcast
3:53 AM 63.0 °F 53.1 °F 70% 29.60 in 10.0 mi SSE 34.5 mph 41.4 mph N/A   Overcast
4:15 AM 62.6 °F 53.6 °F 72% 29.60 in 10.0 mi SSE 31.1 mph 39.1 mph N/A   Overcast
4:53 AM 63.0 °F 53.1 °F 70% 29.58 in 10.0 mi SSE 33.4 mph 41.4 mph 0.00 in   Overcast
5:53 AM 62.1 °F 54.0 °F 75% 29.54 in 10.0 mi SSE 32.2 mph 42.6 mph 0.00 in Rain Light Rain
6:53 AM 60.1 °F 55.0 °F 83% 29.53 in 4.0 mi SSE 29.9 mph 43.7 mph 0.08 in Rain Heavy Rain
7:53 AM 60.1 °F 55.9 °F 86% 29.52 in 6.0 mi SSE 28.8 mph 41.4 mph 0.12 in Rain Rain
8:06 AM 60.8 °F 55.4 °F 82% 29.57 in 2.0 mi SSE 28.8 mph 35.7 mph 0.12 in Rain Heavy Rain
8:10 AM 59.0 °F 55.4 °F 88% 29.57 in 1.0 mi SSE 27.6 mph 35.7 mph 0.19 in Rain Heavy Rain
8:22 AM 59.0 °F 57.2 °F 94% 29.59 in 1.2 mi SSW 23.0 mph 36.8 mph 0.37 in Rain Heavy Rain
8:27 AM 59.0 °F 57.2 °F 94% 29.60 in 2.0 mi SW 18.4 mph 36.8 mph 0.39 in Rain Heavy Rain
8:46 AM 59.0 °F 55.4 °F 88% 29.62 in 3.0 mi South 13.8 mph - 0.51 in Rain Heavy Rain
8:53 AM 59.0 °F 55.9 °F 90% 29.62 in 3.0 mi South 12.7 mph - 0.55 in Rain Heavy Rain
9:47 AM 57.2 °F 55.4 °F 94% 29.64 in 2.0 mi SSW 20.7 mph 24.2 mph 0.21 in Rain Heavy Rain
9:48 AM 57.9 °F 55.0 °F 90% 29.64 in 2.0 mi SSW 19.6 mph 24.2 mph 0.22 in Rain Heavy Rain
10:33 AM 57.2 °F 53.6 °F 88% 29.66 in 2.0 mi WSW 15.0 mph - 0.19 in Rain Heavy Rain
10:45 AM 57.2 °F 53.6 °F 88% 29.66 in 2.0 mi WSW 11.5 mph - 0.23 in Rain Heavy Rain
10:53 AM 57.0 °F 54.0 °F 89% 29.66 in 3.0 mi SW 9.2 mph - 0.26 in Rain Heavy Rain
11:53 AM 57.9 °F 54.0 °F 87% 29.65 in 6.0 mi South 8.1 mph - 0.14 in Rain Light Rain
12:53 PM 57.0 °F 54.0 °F 89% 29.65 in 2.0 mi South 6.9 mph - 0.11 in Rain Rain
1:53 PM 55.0 °F 52.0 °F 89% 29.63 in 2.5 mi SE 4.6 mph - 0.15 in Rain Rain
2:36 PM 55.4 °F 51.8 °F 88% 29.64 in 4.0 mi South 5.8 mph - 0.10 in Rain Rain
2:53 PM 55.0 °F 51.1 °F 86% 29.65 in 3.0 mi SSE 5.8 mph - 0.14 in Rain Rain
3:53 PM 53.1 °F 50.0 °F 89% 29.65 in 3.0 mi South 8.1 mph - 0.26 in Rain Heavy Rain
4:53 PM 52.0 °F 48.9 °F 89% 29.63 in 6.0 mi East 5.8 mph - 0.17 in Rain Heavy Rain
5:53 PM 51.1 °F 48.9 °F 92% 29.64 in 7.0 mi SE 3.5 mph - 0.14 in Rain Rain
6:53 PM 51.1 °F 48.9 °F 92% 29.65 in 7.0 mi ENE 5.8 mph - 0.14 in Rain Rain
7:53 PM 51.1 °F 48.9 °F 92% 29.64 in 7.0 mi NE 5.8 mph - 0.12 in Rain Rain
8:53 PM 51.1 °F 48.9 °F 92% 29.67 in 6.0 mi ENE 4.6 mph - 0.15 in Rain Rain
9:53 PM 51.1 °F 48.9 °F 92% 29.68 in 6.0 mi Calm Calm - 0.20 in Rain Rain
10:53 PM 51.1 °F 48.9 °F 92% 29.67 in 8.0 mi Calm Calm - 0.11 in Rain Rain
11:09 PM 51.8 °F 48.2 °F 88% 29.68 in 7.0 mi Calm Calm - 0.02 in Rain Light Rain
11:53 PM 50.0 °F 48.9 °F 96% 29.67 in 10.0 mi Calm Calm - 0.06 in Rain Light Rain